Weather History for Pian Rosa, Italy

Change the Weather History Date:

Sunday, May 19, 2013

  Actual Average Record
Temperature  
Mean Temperature 20 °F -  
Max Temperature 24 °F 32 °F 37 °F (2007)
Min Temperature 17 °F 22 °F 14 °F (2005)
Degree Days  
Heating Degree Days 44    
Moisture  
Dew Point 18 °F    
Average Humidity 88    
Maximum Humidity 100    
Minimum Humidity 70    
Precipitation  
Precipitation 0.08 in - - ()
Sea Level Pressure  
Sea Level Pressure 29.81 in    
Wind  
Wind Speed 24 mph ()    
Max Wind Speed 48 mph    
Max Gust Speed -    
Visibility 0.4 miles    
Events Fog , Snow    
Averages and records for this station are not official NWS values.
T = Trace of Precipitation, MM = Missing Value Source: Averaged Metar Reports

Daily Weather History Graph

Daily Weather History Graph

Search for Another Location

Airport:

Trip Planner

Search our weather history database for the weather conditions in past years. The results will help you decide how hot, cold, wet, or windy it might be!

Date:

Astronomy

May. 19, 2013 Rise Set
Actual Time 5:52 AM CEST 8:59 PM CEST
Civil Twilight 5:17 AM CEST 9:34 PM CEST
Nautical Twilight 4:31 AM CEST 10:21 PM CEST
Astronomical Twilight 3:35 AM CEST 11:17 PM CEST
Moon 2:27 PM CEST (5/19) 2:28 AM CEST (5/19)
Length of Visible Light 16h 17m
Length of Day
15h 06m
Waxing Gibbous, 62% of the Moon is Illuminated
May 19
Waxing Gibbous
May 25
Full
May 31
Last Quarter
Jun 8
New
Jun 16
First Quarter

Hourly Weather History & Observations

Time (CEST) Temp. Windchill Dew Point Humidity Pressure Visibility Wind Dir Wind Speed Gust Speed Precip Events Conditions
12:55 AM 23.0 °F 1.8 °F 21.2 °F 93% 29.80 in 0.1 mi SE 48.3 mph - N/A Fog , Snow Light Snow
1:55 AM 23.0 °F 3.0 °F 21.2 °F 93% 29.80 in 0.1 mi ESE 41.4 mph - N/A Fog , Snow Light Snow
2:00 AM 22 °F - 21 °F 94%  in 0 mi ESE 41.4 mph - - Snow Light Snow
2:55 AM 21.2 °F 2.4 °F 21.2 °F 100% 29.77 in 0.1 mi South 32.2 mph - N/A Fog , Snow Light Snow
3:55 AM 21.2 °F 2.4 °F 21.2 °F 100% 29.77 in 0.1 mi SE 32.2 mph - N/A Fog , Snow Light Snow
4:55 AM 21.2 °F -0.1 °F 21.2 °F 100% 29.74 in 0.1 mi SE 44.9 mph - N/A Fog , Snow Light Snow
5:00 AM 22 °F - 20 °F 90%  in 0 mi SE 44.9 mph - - Snow Light Snow
5:55 AM 21.2 °F 0.3 °F 21.2 °F 100% 29.71 in 0.1 mi SE 42.6 mph - N/A Fog , Snow Light Snow
6:55 AM 21.2 °F 6.8 °F 19.4 °F 93% 29.74 in 0.1 mi South 17.3 mph - N/A Fog , Snow Light Snow
7:55 AM 21.2 °F 5.6 °F 19.4 °F 93% 29.74 in 0.1 mi South 20.7 mph - N/A Fog , Snow Light Snow
8:00 AM 21 °F - 19 °F 91%  in 0 mi South 20.7 mph - - Snow Light Snow
8:55 AM 21.2 °F 8.3 °F 19.4 °F 93% 29.74 in 0.1 mi South 13.8 mph - N/A Fog , Snow Light Snow
10:55 AM 23.0 °F 12.4 °F 21.2 °F 93% 29.77 in 0.5 mi SSE 10.4 mph - N/A Fog Light Freezing Fog
11:00 AM 22 °F - 20 °F 90%  in 0 mi SSE 10.4 mph - - Fog Partial Fog
11:55 AM 21.2 °F 10.1 °F 17.6 °F 86% 29.80 in 0.3 mi SSE 10.4 mph - N/A Fog , Snow Light Snow
12:55 PM 23.0 °F 13.1 °F 19.4 °F 86% 29.80 in 0.5 mi South 9.2 mph - N/A Fog , Snow Light Snow
1:55 PM 23.0 °F 14.7 °F 21.2 °F 93% 29.83 in 0.1 mi South 6.9 mph - N/A Fog , Snow Light Snow
2:00 PM 23 °F - 20 °F 85%  in 0 mi South 6.9 mph - - Snow Light Snow
2:55 PM 23.0 °F 13.1 °F 21.2 °F 93% 29.83 in 0.1 mi South 9.2 mph - N/A Fog , Snow Light Snow
3:55 PM 23.0 °F 8.0 °F 19.4 °F 86% 29.83 in 0.1 mi South 20.7 mph - N/A Fog , Snow Light Snow
4:55 PM 21.2 °F 7.3 °F 15.8 °F 80% 29.86 in 0.1 mi SSW 16.1 mph - N/A Fog , Snow Light Snow
5:00 PM 21 °F - 16 °F 75%  in 0 mi SSW 16.1 mph - - Snow Light Snow
5:55 PM 21.2 °F 8.9 °F 15.8 °F 80% 29.86 in 0.5 mi SW 12.7 mph - N/A Fog Light Freezing Fog
6:55 PM 21.2 °F 8.9 °F 15.8 °F 80% 29.86 in 0.5 mi South 12.7 mph - N/A Fog Light Freezing Fog
7:55 PM 19.4 °F 6.0 °F 14.0 °F 80% 29.86 in 6.2 mi SSW 13.8 mph - N/A   Partly Cloudy
8:00 PM 20 °F - 14 °F 70%  in 22 mi SSW 13.8 mph - - Fog Light Fog
8:55 PM 19.4 °F 7.9 °F 12.2 °F 74% 29.89 in 0.5 mi SW 10.4 mph - N/A Fog Light Freezing Fog
9:55 PM 19.4 °F 7.9 °F 15.8 °F 86% 29.89 in 0.5 mi SSW 10.4 mph - N/A Fog Light Freezing Fog
10:55 PM 17.6 °F 3.7 °F 14.0 °F 86% 29.92 in 0.5 mi SSW 13.8 mph - N/A Fog Light Freezing Fog
11:00 PM 18 °F - 14 °F 77%  in 0 mi SSW 13.8 mph - - Fog Heavy Fog
11:55 PM 17.6 °F 3.2 °F 14.0 °F 86% 29.92 in 0.1 mi SSW 15.0 mph - N/A Fog Light Freezing Fog